Showing default

BUGSAT 1, 40014

Orbit data source: Space-Track

BUGSAT 1, 40014 is a payload satellite owned by Satellogic SA (AR) in SSO that was launched on Thu, 19 Jun 2014 UTC via a DNEPR launch vehicle from the Orenburg, Russia (OREN). Payload-class satellites include a variety of spacecraft equipped with specific instruments for various scientific and technological missions. These include communications satellites like Starlink; space stations such as the ISS; scientific satellites like the Hubble; Earth observation satellites from companies like Planet Labs, Umbra, and HawkEye 360; GPS; miniature CubeSats for education and research; and military/defense satellites.

Loading next visibility...
Identifier
40014, 2014-033E
Orbit
SSO
Last TLE update
10 hours ago
Origin
Manufacturer
Satellogic SA
Mission
Operational Commercial Imaging
Bus & Motor
BUGSAT, Unknown motor
Mass
22 kg wet, 22 kg dry
Launch date (UTC)
2014-06-19 (11 years ago)
Launch vehicle
DNEPR
Launch site
Orenburg, Russia (OREN)
Object type
Payload
Rocket body
Debris
Shape & HBR
Box, 0.5 m
Radar Cross Section
0.263 m², Medium (>0.1 m² and < 1m²)

Expand to show TLE details & history

TLE from 10 hours ago
0 BUGSAT 1
1 40014U 14033E   25133.91777944  .00005301  00000-0  32116-3 0  9997
2 40014  98.0754 199.0368 0032689  99.3878 261.1048 15.10613687595461
Epoch: 2025-05-13T22:01Z
Definitive object data (Epoch: 2025-05-13T22:01:36.143Z)
Latitude
-0.00005°
Longitude
-3.27342°
Altitude
540.952 km
Speed
7.59 km/s
True Right ascension
13h 16m 08s
True Declination
0° 00' 00"
Sunlit
Object was in full shadow at TLE epoch
Visualization TLE readout
Latitude
64.58452°
Longitude
-165.55751°
Altitude
523.756 km
Speed
7.619 km/s
Apparent Right ascension
03h 45m 43s
Apparent Declination
15° 44' 38"
Sunlit
Object is in daylight
Visualization observer readout
Local Sidereal Time
16:32:50
Azimuth
13.592° NNE
Elevation
-33.268°
Doppler factor
1
Orbital elements
Apogee altitude
553.922 km
Perigee altitude
508.749 km
Semi-major axis
6,909.472 km
Eccentricity
0.0032689
Inclination
98.0754°
RAAN
199.0368°
Arg. of periapsis
99.3878°
True anomaly
260.73495°
Mean anomaly
261.1048°
Eccentric anomaly
260.91985°
Mean motion
3.77899 °/min
BSTAR
0.00032116
Orbital period
95.26 mins
Loading maneuver chart data...
Loading SW <> Apogee altitude chart data...
Loading historical data...
Loading historical data...
Loading historical data...
Loading historical data...
Loading historical data...
Loading historical data...
Loading historical data...

BUGSAT 1 Visibility forecast

Observer location: undefined°, undefined°

Span
Click to sort rows by Start time (UTC) header in descending order
Start Az.
Max El. time (UTC)
Max El. Az.
Max El.
End time (UTC)
End Az.
5 mins2025-05-14 17:41:01.898Z339.25° N2025-05-14 17:43:01.898Z271.192° WNW31.945°2025-05-14 17:46:01.898Z218.475° SW
6 mins2025-05-15 04:22:01.898Z169.33° S2025-05-15 04:25:01.898Z333.691° NNW42.3°2025-05-15 04:28:01.898Z345.716° N
|